Location: Sternwarte ZA, Rosenfeld-Brittheim
(48.2889°N, 8.6789°E)
Time: 05:52:28
(UTC+01:00)

ISS - Pass Details

Date: 09 December 2019
Orbit: 411 x 421 km, 51.6° (Epoch: 15 December)

Event Time Altitude Azimuth Distance (km) Brightness Sun altitude
Rises 17:35:19 0° 292° (WNW) 2,359 0.8 -10.2°
Reaches altitude 10° 17:37:25 10° 288° (WNW) 1,495 -0.2 -10.5°
Maximum altitude 17:40:44 59° 209° (SSW) 489 -3.2 -11.0°
Drops below altitude 10° 17:44:02 10° 129° (SE) 1,494 -1.2 -11.5°
Enters shadow 17:45:10 - 126° (SE) 1,958 -0.7 -11.7°
